Weather History for Moses Lake, WA

Change the Weather History Date:

Wednesday, March 27, 2013

  Actual Average Record
Temperature  
Mean Temperature 50 °F 46 °F  
Max Temperature 61 °F 58 °F 68 °F (1986)
Min Temperature 38 °F 34 °F 26 °F (2008)
Degree Days  
Heating Degree Days 15 19  
Month to date heating degree days 559 593  
Since 1 July heating degree days 4678 5098  
Cooling Degree Days 0 0  
Month to date cooling degree days 0 0  
Year to date cooling degree days 0 0  
Moisture  
Dew Point 33 °F    
Average Humidity 58    
Maximum Humidity 79    
Minimum Humidity 36    
Precipitation  
Precipitation 0.00 in 0.03 in 0.43 in (2007)
Month to date precipitation 0.57 0.64  
Year to date precipitation 1.02 2.58  
Sea Level Pressure  
Sea Level Pressure 30.00 in    
Wind  
Wind Speed 5 mph (NNW)    
Max Wind Speed 9 mph    
Max Gust Speed 13 mph    
Visibility 10 miles    
Events      
T = Trace of Precipitation, MM = Missing Value Source: NWS Daily Summary

Daily Weather History Graph

Daily Weather History Graph

Search for Another Location

Airport:

Trip Planner

Search our weather history database for the weather conditions in past years. The results will help you decide how hot, cold, wet, or windy it might be!

Date:

Astronomy

Mar. 27, 2013 Rise Set
Actual Time 6:45 AM PDT 7:20 PM PDT
Civil Twilight 6:14 AM PDT 7:51 PM PDT
Nautical Twilight 5:38 AM PDT 8:27 PM PDT
Astronomical Twilight 5:00 AM PDT 9:05 PM PDT
Moon 8:15 PM PDT (3/27) 6:35 AM PDT (3/27)
Length of Visible Light 13h 36m
Length of Day
12h 34m
Full, 100% of the Moon is Illuminated
Mar 27
Full
Apr 2
Last Quarter
Apr 10
New
Apr 18
First Quarter
Apr 25
Full

Hourly Weather History & Observations

Time (PDT) Temp. Windchill Dew Point Humidity Pressure Visibility Wind Dir Wind Speed Gust Speed Precip Events Conditions
12:52 AM 44.1 °F 42.5 °F 33.1 °F 65% 29.95 in 10.0 mi NNE 3.5 mph - N/A   Mostly Cloudy
1:52 AM 43.0 °F - 32.0 °F 65% 29.95 in 10.0 mi Calm Calm - N/A   Mostly Cloudy
2:52 AM 43.0 °F 40.3 °F 32.0 °F 65% 29.94 in 10.0 mi North 4.6 mph - N/A   Overcast
3:52 AM 41.0 °F 37.1 °F 32.0 °F 70% 29.94 in 10.0 mi NNW 5.8 mph - N/A   Overcast
4:52 AM 42.1 °F 38.4 °F 32.0 °F 67% 29.94 in 10.0 mi North 5.8 mph - N/A   Overcast
5:52 AM 42.1 °F 37.1 °F 32.0 °F 67% 29.95 in 10.0 mi North 8.1 mph - N/A   Overcast
6:52 AM 42.1 °F 37.7 °F 30.9 °F 65% 29.96 in 10.0 mi North 6.9 mph - N/A   Partly Cloudy
7:52 AM 42.1 °F 38.4 °F 32.0 °F 67% 29.97 in 10.0 mi North 5.8 mph - N/A   Scattered Clouds
8:52 AM 46.0 °F 42.5 °F 33.1 °F 61% 29.98 in 10.0 mi North 6.9 mph - N/A   Overcast
9:52 AM 48.9 °F - 33.1 °F 54% 29.99 in 10.0 mi North 5.8 mph - N/A   Mostly Cloudy
10:52 AM 52.0 °F - 34.0 °F 50% 29.99 in 10.0 mi WNW 3.5 mph - N/A   Overcast
11:52 AM 55.0 °F - 32.0 °F 42% 30.00 in 10.0 mi Calm Calm - N/A   Mostly Cloudy
12:52 PM 57.0 °F - 34.0 °F 42% 29.99 in 10.0 mi SW 6.9 mph - N/A   Mostly Cloudy
1:52 PM 57.0 °F - 34.0 °F 42% 29.99 in 10.0 mi South 5.8 mph - N/A   Overcast
2:52 PM 57.0 °F - 34.0 °F 42% 29.99 in 10.0 mi SSW 4.6 mph - N/A   Overcast
3:52 PM 59.0 °F - 34.0 °F 39% 29.98 in 10.0 mi Calm Calm - N/A   Overcast
4:52 PM 60.1 °F - 33.1 °F 36% 29.97 in 10.0 mi Variable 4.6 mph - N/A   Clear
5:52 PM 59.0 °F - 33.1 °F 38% 29.96 in 10.0 mi Calm Calm - N/A   Clear
6:52 PM 55.9 °F - 35.1 °F 45% 29.97 in 10.0 mi NW 5.8 mph - N/A   Clear
7:52 PM 50.0 °F - 35.1 °F 57% 30.12 in 10.0 mi North 5.8 mph - N/A   Clear
8:52 PM 46.0 °F 43.9 °F 34.0 °F 63% 30.13 in 10.0 mi North 4.6 mph - N/A   Clear
9:52 PM 45.0 °F 43.5 °F 34.0 °F 65% 30.14 in 10.0 mi North 3.5 mph - N/A   Clear
10:52 PM 42.1 °F 37.7 °F 34.0 °F 73% 30.15 in 10.0 mi North 6.9 mph - N/A   Clear
11:52 PM 39.0 °F 34.8 °F 33.1 °F 79% 30.15 in 10.0 mi North 5.8 mph - N/A   Clear